sat.trackr.live / text

‹ back to catalog

QIANFAN-224

NORAD 69853 · 2026-155F

PAYLOAD ACTIVE UNKNOWN

§ Identity

Operator
Country
PRC
Launch date
2026-07-05
Launch site
WSC
Launch vehicle
Mass (kg)
RCS (m²)

External: N2YO · Heavens-Above · Gunter

§ Orbital elements

Epoch: 2026-09-19T20:07:14.864736Z

Period
106.63 min
Inclination
89.0066°
Eccentricity
0.0037117
Mean motion
13.50418947 rev/d
Perigee alt
1,043.1 km
Apogee alt
1,098.4 km
Semi-major
7,448.9 km
B*
-3.0266e+0
RAAN
53.7650°
Arg perigee
17.7990°
Mean anomaly
342.4451°
Rev number
1,064

§ Raw data

QIANFAN-2241 69853U 26155F   26262.83836649 -.01816590  00000+0 -30266+1 0  99932 69853  89.0066  53.7650 0037117  17.7990 342.4451 13.50418947 10646

JSON: /api/v1/satellites/69853 · /tle

For live sub-satellite position, see the globe view (requires WebGL).

§ Visibility from observer

Set your observer location to see the next 7 days of passes ≥ 10°. The values pass through the URL so the page stays shareable.

No JS? Fill the form by hand. The geolocation button needs JavaScript.